Time,TemperatureF,DewpointF,PressureIn,WindDirection,WindDirectionDegrees,WindSpeedMPH,WindSpeedGustMPH,Humidity,HourlyPrecipIn,Conditions,Clouds,dailyrainin,SoftwareType,DateUTC
2013-01-10 00:22:00,43.0,-99.9,-100.00,North,-999,-999.0,-999.0,-999,-99.99,,,-99.99,,2013-01-10 07:22:00,
2013-01-10 00:32:00,43.0,-99.9,-100.00,North,-999,-999.0,-999.0,-999,-99.99,,,-99.99,,2013-01-10 07:32:00,
2013-01-10 01:22:00,44.0,-99.9,-100.00,North,-999,-999.0,-999.0,-999,0.00,,,0.00,,2013-01-10 08:22:00,
2013-01-10 01:33:00,44.0,-99.9,-100.00,North,-999,-999.0,-999.0,-999,0.00,,,0.00,,2013-01-10 08:33:00,
2013-01-10 01:43:00,44.0,-99.9,-100.00,North,-999,-999.0,-999.0,-999,0.00,,,0.00,,2013-01-10 08:43:00,
2013-01-10 02:22:00,43.0,-99.9,-100.00,North,-999,-999.0,-999.0,-999,0.00,,,0.00,,2013-01-10 09:22:00,
2013-01-10 02:33:00,43.0,-99.9,-100.00,North,-999,-999.0,-999.0,-999,0.00,,,0.00,,2013-01-10 09:33:00,
2013-01-10 03:22:00,38.0,-99.9,-100.00,North,-999,-999.0,-999.0,-999,-99.99,,,0.00,,2013-01-10 10:22:00,
2013-01-10 03:33:00,38.0,-99.9,-100.00,North,-999,-999.0,-999.0,-999,-99.99,,,0.00,,2013-01-10 10:33:00,
2013-01-10 03:43:00,38.0,-99.9,-100.00,North,-999,-999.0,-999.0,-999,-99.99,,,0.00,,2013-01-10 10:43:00,
2013-01-10 04:23:00,35.0,-99.9,-100.00,North,-999,-999.0,-999.0,-999,0.00,,,0.00,,2013-01-10 11:23:00,
2013-01-10 04:33:00,35.0,-99.9,-100.00,North,-999,-999.0,-999.0,-999,0.00,,,0.00,,2013-01-10 11:33:00,
2013-01-10 04:43:00,35.0,-99.9,-100.00,North,-999,-999.0,-999.0,-999,0.00,,,0.00,,2013-01-10 11:43:00,
2013-01-10 05:23:00,38.0,-99.9,-100.00,North,-999,-999.0,-999.0,-999,0.00,,,0.00,,2013-01-10 12:23:00,
2013-01-10 05:33:00,38.0,-99.9,-100.00,North,-999,-999.0,-999.0,-999,0.00,,,0.00,,2013-01-10 12:33:00,
2013-01-10 05:43:00,38.0,-99.9,-100.00,North,-999,-999.0,-999.0,-999,0.00,,,0.00,,2013-01-10 12:43:00,
2013-01-10 06:22:00,32.0,-99.9,-100.00,North,-999,-999.0,-999.0,-999,0.00,,,0.00,,2013-01-10 13:22:00,
2013-01-10 06:33:00,32.0,-99.9,-100.00,North,-999,-999.0,-999.0,-999,0.00,,,0.00,,2013-01-10 13:33:00,
2013-01-10 06:43:00,32.0,-99.9,-100.00,North,-999,-999.0,-999.0,-999,0.00,,,0.00,,2013-01-10 13:43:00,
2013-01-10 07:23:00,31.0,-99.9,-100.00,North,-999,-999.0,-999.0,-999,0.00,,,0.00,,2013-01-10 14:23:00,
2013-01-10 07:33:00,31.0,-99.9,-100.00,North,-999,-999.0,-999.0,-999,0.00,,,0.00,,2013-01-10 14:33:00,
2013-01-10 07:44:00,31.0,-99.9,-100.00,North,-999,-999.0,-999.0,-999,0.00,,,0.00,,2013-01-10 14:44:00,
2013-01-10 08:23:00,32.0,-99.9,-100.00,North,-999,-999.0,-999.0,-999,0.00,,,0.00,,2013-01-10 15:23:00,
2013-01-10 08:33:00,32.0,-99.9,-100.00,North,-999,-999.0,-999.0,-999,0.00,,,0.00,,2013-01-10 15:33:00,
2013-01-10 08:44:00,32.0,-99.9,-100.00,North,-999,-999.0,-999.0,-999,0.00,,,0.00,,2013-01-10 15:44:00,
2013-01-10 09:23:00,32.0,-99.9,-100.00,North,-999,-999.0,-999.0,-999,0.00,,,0.00,,2013-01-10 16:23:00,
2013-01-10 09:33:00,32.0,-99.9,-100.00,North,-999,-999.0,-999.0,-999,0.00,,,0.00,,2013-01-10 16:33:00,
2013-01-10 09:43:00,32.0,-99.9,-100.00,North,-999,-999.0,-999.0,-999,0.00,,,0.00,,2013-01-10 16:43:00,
2013-01-10 10:23:00,33.0,-99.9,-100.00,North,-999,-999.0,-999.0,-999,0.04,,,-99.99,,2013-01-10 17:23:00,
2013-01-10 10:33:00,33.0,-99.9,-100.00,North,-999,-999.0,-999.0,-999,0.04,,,-99.99,,2013-01-10 17:33:00,
2013-01-10 10:43:00,33.0,-99.9,-100.00,North,-999,-999.0,-999.0,-999,0.04,,,-99.99,,2013-01-10 17:43:00,
2013-01-10 11:24:00,33.0,-99.9,-100.00,North,-999,-999.0,-999.0,-999,0.00,,,0.04,,2013-01-10 18:24:00,
2013-01-10 11:34:00,33.0,-99.9,-100.00,North,-999,-999.0,-999.0,-999,0.00,,,0.04,,2013-01-10 18:34:00,
2013-01-10 11:44:00,33.0,-99.9,-100.00,North,-999,-999.0,-999.0,-999,0.00,,,0.04,,2013-01-10 18:44:00,
2013-01-10 12:23:00,34.0,-99.9,-100.00,North,-999,-999.0,-999.0,-999,0.00,,,0.04,,2013-01-10 19:23:00,
2013-01-10 12:33:00,34.0,-99.9,-100.00,North,-999,-999.0,-999.0,-999,0.00,,,0.04,,2013-01-10 19:33:00,
2013-01-10 12:44:00,34.0,-99.9,-100.00,North,-999,-999.0,-999.0,-999,0.00,,,0.04,,2013-01-10 19:44:00,
2013-01-10 13:24:00,32.0,-99.9,-100.00,North,-999,-999.0,-999.0,-999,0.00,,,0.04,,2013-01-10 20:24:00,
2013-01-10 13:33:00,32.0,-99.9,-100.00,North,-999,-999.0,-999.0,-999,0.00,,,0.04,,2013-01-10 20:33:00,
2013-01-10 13:43:00,32.0,-99.9,-100.00,North,-999,-999.0,-999.0,-999,0.00,,,0.04,,2013-01-10 20:43:00,
2013-01-10 14:23:00,31.0,-99.9,-100.00,North,-999,-999.0,-999.0,-999,0.00,,,0.04,,2013-01-10 21:23:00,
2013-01-10 14:33:00,31.0,-99.9,-100.00,North,-999,-999.0,-999.0,-999,0.00,,,0.04,,2013-01-10 21:33:00,
2013-01-10 14:44:00,31.0,-99.9,-100.00,North,-999,-999.0,-999.0,-999,0.00,,,0.04,,2013-01-10 21:44:00,
2013-01-10 15:27:00,28.0,-99.9,-100.00,North,-999,-999.0,-999.0,-999,0.03,,,0.07,,2013-01-10 22:27:00,
2013-01-10 15:34:00,28.0,-99.9,-100.00,North,-999,-999.0,-999.0,-999,0.03,,,0.07,,2013-01-10 22:34:00,
2013-01-10 15:44:00,28.0,-99.9,-100.00,North,-999,-999.0,-999.0,-999,0.03,,,0.07,,2013-01-10 22:44:00,
2013-01-10 16:23:00,26.0,-99.9,-100.00,North,-999,-999.0,-999.0,-999,0.05,,,0.12,,2013-01-10 23:23:00,
2013-01-10 16:33:00,26.0,-99.9,-100.00,North,-999,-999.0,-999.0,-999,0.05,,,0.12,,2013-01-10 23:33:00,
2013-01-10 16:43:00,26.0,-99.9,-100.00,North,-999,-999.0,-999.0,-999,0.05,,,0.12,,2013-01-10 23:43:00,
2013-01-10 17:24:00,25.0,-99.9,-100.00,North,-999,-999.0,-999.0,-999,0.04,,,0.16,,2013-01-11 00:24:00,
2013-01-10 17:34:00,25.0,-99.9,-100.00,North,-999,-999.0,-999.0,-999,0.04,,,0.16,,2013-01-11 00:34:00,
2013-01-10 17:43:00,25.0,-99.9,-100.00,North,-999,-999.0,-999.0,-999,0.04,,,0.16,,2013-01-11 00:43:00,
2013-01-10 18:24:00,22.0,-99.9,-100.00,North,-999,-999.0,-999.0,-999,0.01,,,0.17,,2013-01-11 01:24:00,
2013-01-10 18:34:00,22.0,-99.9,-100.00,North,-999,-999.0,-999.0,-999,0.01,,,0.17,,2013-01-11 01:34:00,
2013-01-10 18:44:00,22.0,-99.9,-100.00,North,-999,-999.0,-999.0,-999,0.01,,,0.17,,2013-01-11 01:44:00,
2013-01-10 19:24:00,21.0,-99.9,-100.00,North,-999,-999.0,-999.0,-999,0.00,,,0.17,,2013-01-11 02:24:00,
2013-01-10 19:34:00,21.0,-99.9,-100.00,North,-999,-999.0,-999.0,-999,0.00,,,0.17,,2013-01-11 02:34:00,
2013-01-10 19:44:00,21.0,-99.9,-100.00,North,-999,-999.0,-999.0,-999,0.00,,,0.17,,2013-01-11 02:44:00,
2013-01-10 20:23:00,20.0,-99.9,-100.00,North,-999,-999.0,-999.0,-999,0.00,,,0.17,,2013-01-11 03:23:00,
2013-01-10 20:34:00,20.0,-99.9,-100.00,North,-999,-999.0,-999.0,-999,0.00,,,0.17,,2013-01-11 03:34:00,
2013-01-10 20:43:00,20.0,-99.9,-100.00,North,-999,-999.0,-999.0,-999,0.00,,,0.17,,2013-01-11 03:43:00,
2013-01-10 21:23:00,18.0,-99.9,-100.00,North,-999,-999.0,-999.0,-999,0.04,,,0.21,,2013-01-11 04:23:00,
2013-01-10 21:33:00,18.0,-99.9,-100.00,North,-999,-999.0,-999.0,-999,0.04,,,0.21,,2013-01-11 04:33:00,
2013-01-10 21:43:00,18.0,-99.9,-100.00,North,-999,-999.0,-999.0,-999,0.04,,,0.21,,2013-01-11 04:43:00,
2013-01-10 22:23:00,17.0,-99.9,-100.00,North,-999,-999.0,-999.0,-999,0.02,,,0.23,,2013-01-11 05:23:00,
2013-01-10 22:33:00,17.0,-99.9,-100.00,North,-999,-999.0,-999.0,-999,0.02,,,0.23,,2013-01-11 05:33:00,
2013-01-10 22:43:00,17.0,-99.9,-100.00,North,-999,-999.0,-999.0,-999,0.02,,,0.23,,2013-01-11 05:43:00,
2013-01-10 23:22:00,16.0,-99.9,-100.00,North,-999,-999.0,-999.0,-999,0.03,,,0.26,,2013-01-11 06:22:00,
2013-01-10 23:33:00,16.0,-99.9,-100.00,North,-999,-999.0,-999.0,-999,0.03,,,0.26,,2013-01-11 06:33:00,
2013-01-10 23:43:00,16.0,-99.9,-100.00,North,-999,-999.0,-999.0,-999,0.03,,,0.26,,2013-01-11 06:43:00,